LSZH Airport Information

Runway Information
Runway 10 Length 8202 ft width 197 ft
Elevation 1391 ft Threshold 0 ft Heading 96
Runway 28 Length 8202 ft Width 197 ft
Elevation 1416 ft Threshold 0 ft Heading 276
Runway 14 Length 10827 ft width 197 ft
Elevation 1402 ft Threshold 490 ft Heading 137
Runway 32 Length 10827 ft Width 197 ft
Elevation 1402 ft Threshold 0 ft Heading 317
Runway 16 Length 12139 ft width 197 ft
Elevation 1390 ft Threshold 0 ft Heading 155
Runway 34 Length 12139 ft Width 197 ft
Elevation 1388 ft Threshold 1541 ft Heading 335
Airport Frequencies
Type APP Name APP Frequency 118 MHZ
Type ATIS Name ATIS Frequency 125.725 MHZ
Type CLD Name CLNC DEL Frequency 121.8 MHZ
Type DEP Name DEP Frequency 125.95 MHZ
Type GND Name GND Frequency 121.9 MHZ
Type RMP Name APRON Frequency 121.75 MHZ
Type TCA Name TERMINAL Frequency 127.75 MHZ
Type TWR Name TWR Frequency 118.1 MHZ
Airport Navaids
Type VOR-DME Name Kloten Frequency 114850 KHZ
Type VOR-DME Name Zurich East Frequency 110050 KHZ
Airport Weather Information & NOTAM
ADDS - METARS form results

(1542 UTC 25 June 2018)
 
METAR text: LSZH 251520Z 02006KT 9999 FEW056 22/07 Q1022 NOSIG
Conditions at: LSZH (ZURICH-KLOTEN (A, CH) observed 1520 UTC 25 June 2018
Temperature: 22.0°C (72°F)
Dewpoint: 7.0°C (45°F) [RH = 38%]
Pressure (altimeter): 30.18 inches Hg (1022.0 mb)
Winds: from the NNE (20 degrees) at 7 MPH (6 knots; 3.1 m/s)
Visibility: 6 or more miles (10+ km)
Ceiling: at least 12,000 feet AGL
Clouds: few clouds at 5600 feet AGL
Weather: no significant weather observed at this time

METAR text: LSZH 251450Z 03007KT 360V090 9999 FEW054 22/08 Q1022 NOSIG
Conditions at: LSZH (ZURICH-KLOTEN (A, CH) observed 1450 UTC 25 June 2018
Temperature: 22.0°C (72°F)
Dewpoint: 8.0°C (46°F) [RH = 41%]
Pressure (altimeter): 30.18 inches Hg (1022.0 mb)
Winds: from the NNE (30 degrees) at 8 MPH (7 knots; 3.6 m/s)
Visibility: 6 or more miles (10+ km)
Ceiling: at least 12,000 feet AGL
Clouds: few clouds at 5400 feet AGL
Weather: no significant weather observed at this time